Weather History for Oklahoma City / Page Muni, OK

Change the Weather History Date:

Monday, November 5, 2012

  Actual Average (KOKC) Record (KOKC)
Temperature  
Mean Temperature 52 °F 55 °F  
Max Temperature 64 °F 66 °F 86 °F (1891)
Min Temperature 39 °F 44 °F 24 °F (1951)
Degree Days  
Heating Degree Days 14 10  
Month to date heating degree days 47  
Since 1 July heating degree days 211  
Cooling Degree Days 0 1  
Month to date cooling degree days 5  
Year to date cooling degree days 2097  
Growing Degree Days 2 (Base 50)    
Moisture  
Dew Point 36 °F    
Average Humidity 55    
Maximum Humidity 81    
Minimum Humidity 37    
Precipitation  
Precipitation 0.00 in 0.08 in 1.23 in (1994)
Month to date precipitation 0.43  
Year to date precipitation 33.09  
Sea Level Pressure  
Sea Level Pressure 30.12 in    
Wind  
Wind Speed 9 mph (NNW)    
Max Wind Speed 24 mph    
Max Gust Speed 30 mph    
Visibility 6 miles    
Events      
T = Trace of Precipitation, MM = Missing Value Source: NWS Daily Summary

Daily Weather History Graph

Daily Weather History Graph

Search for Another Location

Airport:

Trip Planner

Search our weather history database for the weather conditions in past years. The results will help you decide how hot, cold, wet, or windy it might be!

Date:

Astronomy

Nov. 05, 2012 Rise Set
Actual Time 6:57 AM CST 5:31 PM CST
Civil Twilight 6:30 AM CST 5:58 PM CST
Nautical Twilight 6:00 AM CST 6:28 PM CST
Astronomical Twilight 5:30 AM CST 6:58 PM CST
Moon 11:10 PM CST (11/5) 12:17 PM CST (11/5)
Length of Visible Light 11h 27m
Length of Day
10h 34m
Waning Gibbous, 62% of the Moon is Illuminated
Nov 5
Waning Gibbous
Nov 6
Last Quarter
Nov 13
New
Nov 20
First Quarter
Nov 28
Full

Hourly Weather History & Observations

Time (CST) Temp. Windchill Dew Point Humidity Pressure Visibility Wind Dir Wind Speed Gust Speed Precip Events Conditions
12:15 AM 48.2 °F - 37.4 °F 66% 30.08 in 10.0 mi SW 5.8 mph - N/A   Unknown
12:35 AM 48.2 °F - 37.4 °F 66% 30.08 in 10.0 mi SSW 5.8 mph - N/A   Unknown
12:55 AM 48.2 °F - 37.4 °F 66% 30.07 in 8.0 mi SW 6.9 mph - N/A   Unknown
1:15 AM 48.2 °F - 37.4 °F 66% 30.07 in 7.0 mi SW 4.6 mph - N/A   Unknown
1:35 AM 50.0 °F - 37.4 °F 62% 30.08 in 4.0 mi WSW 5.8 mph - N/A   Haze
1:55 AM 50.0 °F - 37.4 °F 62% 30.08 in 8.0 mi WSW 5.8 mph - N/A   Unknown
2:15 AM 50.0 °F - 37.4 °F 62% 30.08 in 5.0 mi WSW 5.8 mph - N/A   Haze
2:35 AM 50.0 °F - 37.4 °F 62% 30.09 in 4.0 mi WSW 5.8 mph - N/A   Haze
2:55 AM 50.0 °F - 37.4 °F 62% 30.09 in 4.0 mi West 4.6 mph - N/A   Haze
3:15 AM 50.0 °F - 37.4 °F 62% 30.10 in 0.5 mi NNW 8.1 mph - N/A   Haze
3:35 AM 53.6 °F - 37.4 °F 54% 30.09 in 1.0 mi NW 6.9 mph - N/A   Haze
3:55 AM 53.6 °F - 35.6 °F 51% 30.09 in 1.0 mi NW 4.6 mph - N/A   Haze
4:15 AM 53.6 °F - 35.6 °F 51% 30.08 in 7.0 mi NW 4.6 mph - N/A   Unknown
4:35 AM 53.6 °F - 35.6 °F 51% 30.08 in 0.5 mi WNW 3.5 mph - N/A   Haze
4:55 AM 51.8 °F - 35.6 °F 54% 30.07 in 0.2 mi WNW 4.6 mph - N/A   Haze
5:15 AM 51.8 °F - 35.6 °F 54% 30.08 in 2.0 mi NW 4.6 mph - N/A   Haze
5:35 AM 50.0 °F - 35.6 °F 58% 30.09 in 3.0 mi NW 6.9 mph - N/A   Haze
5:55 AM 53.6 °F - 35.6 °F 51% 30.10 in 3.0 mi NNW 8.1 mph - N/A   Haze
6:15 AM 53.6 °F - 35.6 °F 51% 30.10 in 10.0 mi NNW 12.7 mph - N/A   Unknown
6:35 AM 55.4 °F - 35.6 °F 47% 30.10 in 9.0 mi NNW 13.8 mph - N/A   Unknown
6:55 AM 53.6 °F - 35.6 °F 51% 30.10 in 9.0 mi NNW 9.2 mph - N/A   Unknown
7:15 AM 51.8 °F - 35.6 °F 54% 30.11 in 8.0 mi North - - N/A   Partly Cloudy
7:35 AM 53.6 °F - 35.6 °F 51% 30.11 in 4.0 mi North - - N/A   Haze
7:55 AM 53.6 °F - 35.6 °F 51% 30.12 in 5.0 mi North - - N/A   Haze
8:15 AM 55.4 °F - 35.6 °F 47% 30.12 in 8.0 mi North - - N/A   Clear
8:35 AM 55.4 °F - 35.6 °F 47% 30.14 in 5.0 mi NNW 13.8 mph - N/A   Haze
8:55 AM 57.2 °F - 37.4 °F 48% 30.14 in 4.0 mi North 19.6 mph 27.6 mph N/A   Haze
9:15 AM 59.0 °F - 37.4 °F 45% 30.14 in 8.0 mi North 20.7 mph 27.6 mph N/A   Clear
9:35 AM 59.0 °F - 37.4 °F 45% 30.15 in 2.5 mi North 21.9 mph 26.5 mph N/A   Haze
9:55 AM 59.0 °F - 37.4 °F 45% 30.15 in 3.0 mi North 19.6 mph 27.6 mph N/A   Haze
10:15 AM 60.8 °F - 39.2 °F 45% 30.15 in 4.0 mi North 18.4 mph 26.5 mph N/A   Haze
10:35 AM 60.8 °F - 39.2 °F 45% 30.15 in 3.0 mi NNW 20.7 mph 27.6 mph N/A   Haze
10:55 AM 60.8 °F - 39.2 °F 45% 30.15 in 2.5 mi NNW 18.4 mph 26.5 mph N/A   Haze
11:15 AM 62.6 °F - 39.2 °F 42% 30.15 in 2.5 mi NNW 17.3 mph 23.0 mph N/A   Haze
11:35 AM 62.6 °F - 37.4 °F 39% 30.14 in 2.5 mi NW 20.7 mph 25.3 mph N/A   Haze
11:55 AM 62.6 °F - 37.4 °F 39% 30.14 in 2.5 mi North 20.7 mph 29.9 mph N/A   Haze
12:15 PM 62.6 °F - 37.4 °F 39% 30.14 in 2.0 mi NNW 20.7 mph 28.8 mph N/A   Haze
12:35 PM 62.6 °F - 37.4 °F 39% 30.13 in 7.0 mi North 17.3 mph 27.6 mph N/A   Clear
12:55 PM 62.6 °F - 37.4 °F 39% 30.13 in 5.0 mi North 19.6 mph 27.6 mph N/A   Haze
1:15 PM 62.6 °F - 35.6 °F 37% 30.12 in 3.0 mi NNW 19.6 mph 27.6 mph N/A   Haze
1:35 PM 64.4 °F - 37.4 °F 37% 30.11 in 5.0 mi North 15.0 mph 24.2 mph N/A   Haze
1:55 PM 62.6 °F - 35.6 °F 37% 30.11 in 2.0 mi NNW 24.2 mph 28.8 mph N/A   Haze
2:15 PM 62.6 °F - 35.6 °F 37% 30.11 in 1.8 mi NNW 20.7 mph 28.8 mph N/A   Haze
2:35 PM 62.6 °F - 35.6 °F 37% 30.11 in 2.0 mi NNW 19.6 mph 26.5 mph N/A   Haze
2:55 PM 62.6 °F - 35.6 °F 37% 30.11 in 5.0 mi North 19.6 mph 28.8 mph N/A   Haze
3:15 PM 62.6 °F - 35.6 °F 37% 30.11 in 5.0 mi North 19.6 mph 26.5 mph N/A   Haze
3:35 PM 60.8 °F - 35.6 °F 39% 30.12 in 9.0 mi North 17.3 mph 24.2 mph N/A   Clear
3:55 PM 59.0 °F - 37.4 °F 45% 30.12 in 10.0 mi North - - N/A   Clear
4:15 PM 59.0 °F - 37.4 °F 45% 30.11 in 10.0 mi NNE 13.8 mph 23.0 mph N/A   Clear
4:35 PM 57.2 °F - 37.4 °F 48% 30.11 in 10.0 mi North 12.7 mph 21.9 mph N/A   Clear
4:55 PM 57.2 °F - 37.4 °F 48% 30.11 in 10.0 mi North 12.7 mph - N/A   Clear
5:15 PM 55.4 °F - 37.4 °F 51% 30.11 in 10.0 mi NNE 11.5 mph 17.3 mph N/A   Clear
5:35 PM 53.6 °F - 37.4 °F 54% 30.12 in 10.0 mi North 8.1 mph - N/A   Clear
5:55 PM 51.8 °F - 35.6 °F 54% 30.12 in 10.0 mi NNE 9.2 mph - N/A   Unknown
6:15 PM 50.0 °F - 35.6 °F 58% 30.13 in 10.0 mi NNE 6.9 mph - N/A   Unknown
6:35 PM 48.2 °F - 35.6 °F 62% 30.13 in 10.0 mi NNE 6.9 mph - N/A   Unknown
6:55 PM 48.2 °F - 35.6 °F 62% 30.13 in 10.0 mi North 4.6 mph - N/A   Unknown
7:15 PM 46.4 °F 42.4 °F 35.6 °F 66% 30.12 in 10.0 mi NNE 8.1 mph - N/A   Unknown
7:35 PM 44.6 °F 41.4 °F 35.6 °F 71% 30.12 in 10.0 mi NNE 5.8 mph - N/A   Unknown
7:55 PM 44.6 °F - 35.6 °F 71% 30.13 in 10.0 mi Calm Calm - N/A   Unknown
8:15 PM 44.6 °F 43.1 °F 35.6 °F 71% 30.14 in 10.0 mi NW 3.5 mph - N/A   Unknown
8:35 PM 46.4 °F 42.9 °F 35.6 °F 66% 30.15 in 10.0 mi NNE 6.9 mph - N/A   Unknown
8:55 PM 42.8 °F 38.0 °F 35.6 °F 76% 30.15 in 10.0 mi NE 8.1 mph - N/A   Unknown
9:15 PM 44.6 °F 43.1 °F 35.6 °F 71% 30.16 in 10.0 mi ENE 3.5 mph - N/A   Unknown
9:35 PM 44.6 °F 42.2 °F 35.6 °F 71% 30.16 in 10.0 mi NE 4.6 mph - N/A   Unknown
9:55 PM 41.0 °F 37.1 °F 33.8 °F 76% 30.15 in 10.0 mi ENE 5.8 mph - N/A   Unknown
10:15 PM 39.2 °F - 33.8 °F 81% 30.14 in 10.0 mi Calm Calm - N/A   Unknown
10:35 PM 41.0 °F - 35.6 °F 81% 30.14 in 10.0 mi Calm Calm - N/A   Unknown
10:55 PM 41.0 °F - 35.6 °F 81% 30.13 in 10.0 mi Calm Calm - N/A   Unknown
11:15 PM 41.0 °F - 35.6 °F 81% 30.13 in 10.0 mi Calm Calm - N/A   Unknown
11:35 PM 41.0 °F 38.0 °F 33.8 °F 76% 30.13 in 10.0 mi West 4.6 mph - N/A   Unknown
11:55 PM 39.2 °F 37.0 °F 33.8 °F 81% 30.13 in 10.0 mi WSW 3.5 mph - N/A   Unknown